| time (UTC) | temp C | wind direction | speed KPH | gust KPH | rain 1hr cm | rain 24hr cm | rain mn cm | humidity % | barometer mb |
| 20260504141045 | 11 | 163 | 9.7 | 25.7 | 0.00 | 0.00 | 0.00 | 54 | 1005.3 |
| 20260504140545 | 11 | 162 | 11.3 | 25.7 | 0.00 | 0.00 | 0.00 | 54 | 1005.1 |
| 20260504140103 | 11 | 161 | 9.7 | 24.1 | 0.00 | 0.00 | 0.00 | 54 | 1005.0 |
| 20260504130547 | 10 | 157 | 16.1 | 30.6 | 0.00 | 0.00 | 0.00 | 57 | 1005.0 |
| 20260504110547 | 8 | 186 | 14.5 | 30.6 | 0.00 | 0.00 | 0.00 | 69 | 1005.4 |
| 20260504110111 | 8 | 163 | 16.1 | 27.4 | 0.00 | 0.00 | 0.00 | 70 | 1005.3 |
| 20260504100544 | 7 | 146 | 6.4 | 16.1 | 0.00 | 0.00 | 0.00 | 79 | 1005.5 |
| 20260504090117 | 7 | 157 | 8.0 | 16.1 | 0.00 | 0.00 | 0.00 | 81 | 1005.6 |
| 20260504081554 | 8 | 165 | 11.3 | 19.3 | 0.00 | 0.00 | 0.00 | 70 | 1006.1 |
| 20260504081046 | 8 | 167 | 8.0 | 19.3 | 0.00 | 0.00 | 0.00 | 71 | 1006.0 |
| 20260504080548 | 8 | 167 | 8.0 | 22.5 | 0.00 | 0.00 | 0.00 | 71 | 1006.0 |
| 20260504050545 | 6 | 120 | 4.8 | 12.9 | 0.00 | 0.03 | 0.00 | 55 | 1006.1 |
| 20260504050107 | 6 | 120 | 6.4 | 12.9 | 0.00 | 0.03 | 0.00 | 55 | 1006.3 |
| 20260504045546 | 6 | 120 | 4.8 | 12.9 | 0.00 | 0.03 | 0.00 | 56 | 1006.4 |
| 20260504045043 | 6 | 120 | 4.8 | 16.1 | 0.00 | 0.03 | 0.00 | 54 | 1006.4 |
| 20260504044603 | 6 | 120 | 8.0 | 16.1 | 0.00 | 0.03 | 0.00 | 54 | 1006.5 |
| 20260504044044 | 7 | 121 | 6.4 | 14.5 | 0.00 | 0.03 | 0.00 | 53 | 1006.6 |
| 20260504043544 | 7 | 120 | 6.4 | 14.5 | 0.00 | 0.03 | 0.00 | 53 | 1006.4 |
| 20260504043056 | 7 | 119 | 8.0 | 14.5 | 0.00 | 0.03 | 0.00 | 52 | 1006.4 |
| 20260504042543 | 7 | 119 | 8.0 | 14.5 | 0.00 | 0.03 | 0.00 | 52 | 1006.4 |
| 20260504042042 | 6 | 121 | 8.0 | 12.9 | 0.00 | 0.03 | 0.00 | 52 | 1006.5 |
| 20260504041553 | 6 | 121 | 6.4 | 14.5 | 0.00 | 0.03 | 0.00 | 52 | 1006.5 |
| 20260504041043 | 6 | 120 | 6.4 | 14.5 | 0.00 | 0.03 | 0.00 | 53 | 1006.5 |
| 20260504040544 | 6 | 121 | 8.0 | 14.5 | 0.00 | 0.03 | 0.00 | 53 | 1006.5 |
| 20260504040049 | 6 | 118 | 6.4 | 14.5 | 0.00 | 0.03 | 0.00 | 53 | 1006.5 |
| 20260504035544 | 6 | 117 | 8.0 | 14.5 | 0.00 | 0.03 | 0.03 | 52 | 1006.7 |
| 20260504035043 | 6 | 115 | 8.0 | 14.5 | 0.00 | 0.03 | 0.03 | 51 | 1006.5 |
| 20260504034603 | 6 | 112 | 6.4 | 14.5 | 0.00 | 0.03 | 0.03 | 52 | 1006.6 |
| 20260504034043 | 6 | 109 | 6.4 | 12.9 | 0.00 | 0.03 | 0.03 | 54 | 1006.6 |
| 20260504033543 | 6 | 109 | 6.4 | 14.5 | 0.00 | 0.03 | 0.03 | 54 | 1006.5 |
| 20260504033113 | 6 | 107 | 6.4 | 14.5 | 0.00 | 0.03 | 0.03 | 53 | 1006.5 |
| 20260504032543 | 6 | 78 | 6.4 | 17.7 | 0.00 | 0.03 | 0.03 | 53 | 1006.7 |
| 20260504032043 | 6 | 74 | 8.0 | 17.7 | 0.00 | 0.03 | 0.03 | 51 | 1006.5 |
| 20260504031556 | 6 | 57 | 4.8 | 16.1 | 0.00 | 0.03 | 0.03 | 51 | 1006.6 |
| 20260504031042 | 6 | 49 | 4.8 | 11.3 | 0.00 | 0.03 | 0.03 | 50 | 1006.5 |
| 20260504030546 | 6 | 48 | 4.8 | 9.7 | 0.00 | 0.03 | 0.03 | 49 | 1006.4 |
| 20260504030050 | 6 | 47 | 4.8 | 12.9 | 0.00 | 0.03 | 0.03 | 48 | 1006.5 |
| 20260504025543 | 6 | 45 | 4.8 | 12.9 | 0.00 | 0.03 | 0.03 | 48 | 1006.6 |
| 20260504025044 | 6 | 40 | 1.6 | 11.3 | 0.00 | 0.03 | 0.03 | 50 | 1006.6 |
| 20260504024557 | 6 | 28 | 3.2 | 8.0 | 0.00 | 0.03 | 0.03 | 49 | 1006.7 |
| 20260504024043 | 6 | 28 | 3.2 | 8.0 | 0.00 | 0.03 | 0.03 | 48 | 1006.7 |
| 20260504023543 | 6 | 28 | 4.8 | 8.0 | 0.00 | 0.03 | 0.03 | 47 | 1006.8 |
| 20260504023055 | 6 | 27 | 4.8 | 8.0 | 0.00 | 0.03 | 0.03 | 48 | 1006.9 |
| 20260504022543 | 6 | 27 | 4.8 | 9.7 | 0.00 | 0.03 | 0.03 | 49 | 1006.8 |
| 20260504022045 | 7 | 27 | 6.4 | 11.3 | 0.00 | 0.03 | 0.03 | 47 | 1007.0 |
| 20260504021547 | 6 | 22 | 4.8 | 11.3 | 0.00 | 0.03 | 0.03 | 48 | 1006.9 |
| 20260504021046 | 7 | 22 | 6.4 | 11.3 | 0.00 | 0.03 | 0.03 | 47 | 1007.0 |
| 20260504020542 | 7 | 12 | 3.2 | 6.4 | 0.00 | 0.03 | 0.03 | 46 | 1007.0 |
| 20260504020051 | 7 | 12 | 3.2 | 6.4 | 0.00 | 0.03 | 0.03 | 46 | 1006.9 |
| 20260504015548 | 7 | 12 | 3.2 | 8.0 | 0.00 | 0.03 | 0.03 | 44 | 1006.9 |
| 20260504015049 | 8 | 12 | 1.6 | 8.0 | 0.00 | 0.03 | 0.03 | 43 | 1006.9 |
| 20260504014555 | 8 | 12 | 4.8 | 8.0 | 0.00 | 0.03 | 0.03 | 41 | 1007.0 |
| 20260504014046 | 8 | 11 | 3.2 | 6.4 | 0.00 | 0.03 | 0.03 | 41 | 1007.0 |
| 20260504013547 | 8 | 11 | 3.2 | 6.4 | 0.00 | 0.03 | 0.03 | 41 | 1007.1 |
| 20260504013051 | 8 | 11 | 3.2 | 6.4 | 0.00 | 0.03 | 0.03 | 41 | 1007.0 |
| 20260504012549 | 8 | 11 | 3.2 | 6.4 | 0.00 | 0.03 | 0.03 | 41 | 1007.0 |
| 20260504012046 | 8 | 11 | 1.6 | 4.8 | 0.00 | 0.03 | 0.03 | 41 | 1007.1 |
| 20260504011551 | 8 | 11 | 1.6 | 4.8 | 0.00 | 0.03 | 0.03 | 41 | 1007.0 |
| 20260504011047 | 8 | 11 | 1.6 | 4.8 | 0.00 | 0.03 | 0.03 | 42 | 1006.9 |
| 20260504010546 | 8 | 11 | 1.6 | 4.8 | 0.00 | 0.03 | 0.03 | 42 | 1007.0 |
| 20260504010055 | 8 | 11 | 1.6 | 4.8 | 0.00 | 0.03 | 0.03 | 42 | 1006.9 |
| 20260504005549 | 8 | 11 | 1.6 | 4.8 | 0.00 | 0.03 | 0.03 | 42 | 1006.7 |
| 20260504005046 | 8 | 11 | 1.6 | 4.8 | 0.00 | 0.03 | 0.03 | 41 | 1006.8 |
| 20260504004552 | 8 | 11 | 1.6 | 3.2 | 0.00 | 0.03 | 0.03 | 41 | 1006.7 |
| 20260504004046 | 8 | 11 | 1.6 | 3.2 | 0.00 | 0.03 | 0.03 | 41 | 1006.7 |
| 20260504003550 | 8 | 11 | 1.6 | 3.2 | 0.00 | 0.03 | 0.03 | 41 | 1006.6 |
| 20260504003053 | 8 | 11 | 1.6 | 4.8 | 0.00 | 0.03 | 0.03 | 41 | 1006.6 |
| 20260504002546 | 8 | 11 | 1.6 | 4.8 | 0.00 | 0.03 | 0.03 | 41 | 1006.5 |
| 20260504002047 | 8 | 11 | 1.6 | 3.2 | 0.00 | 0.03 | 0.03 | 42 | 1006.6 |
| 20260504001609 | 9 | 11 | 1.6 | 3.2 | 0.00 | 0.03 | 0.03 | 42 | 1006.6 |
| 20260504001047 | 9 | 11 | 0.0 | 3.2 | 0.00 | 0.03 | 0.03 | 42 | 1006.6 |
| 20260504000547 | 9 | 0 | 0.0 | 3.2 | 0.00 | 0.03 | 0.03 | 42 | 1006.6 |
| 20260504000057 | 9 | 11 | 1.6 | 4.8 | 0.00 | 0.03 | 0.03 | 42 | 1006.6 |
| 20260503235546 | 10 | 0 | 1.6 | 4.8 | 0.00 | 0.03 | 0.03 | 43 | 1006.6 |
| 20260503235047 | 10 | 0 | 0.0 | 4.8 | 0.00 | 0.03 | 0.03 | 42 | 1006.4 |
| 20260503234552 | 10 | 0 | 0.0 | 4.8 | 0.00 | 0.03 | 0.03 | 42 | 1006.5 |
| 20260503234045 | 10 | 11 | 1.6 | 9.7 | 0.00 | 0.03 | 0.03 | 41 | 1006.5 |
| 20260503233547 | 10 | 11 | 1.6 | 9.7 | 0.00 | 0.03 | 0.03 | 41 | 1006.4 |
| 20260503233053 | 10 | 320 | 1.6 | 6.4 | 0.00 | 0.03 | 0.03 | 41 | 1006.5 |
| 20260503232551 | 10 | 320 | 1.6 | 8.0 | 0.00 | 0.03 | 0.03 | 39 | 1006.3 |
| 20260503232047 | 10 | 320 | 1.6 | 8.0 | 0.00 | 0.03 | 0.03 | 40 | 1006.4 |
| 20260503231556 | 10 | 320 | 3.2 | 8.0 | 0.00 | 0.03 | 0.03 | 38 | 1006.3 |
| 20260503231046 | 10 | 320 | 3.2 | 8.0 | 0.00 | 0.03 | 0.03 | 39 | 1006.2 |
| 20260503230547 | 10 | 320 | 3.2 | 8.0 | 0.00 | 0.03 | 0.03 | 39 | 1006.1 |
| 20260503230051 | 10 | 320 | 4.8 | 8.0 | 0.00 | 0.03 | 0.03 | 38 | 1006.2 |
| 20260503225546 | 10 | 319 | 3.2 | 4.8 | 0.00 | 0.08 | 0.03 | 41 | 1006.3 |
| 20260503225047 | 10 | 319 | 1.6 | 6.4 | 0.00 | 0.08 | 0.03 | 42 | 1006.3 |
| 20260503224551 | 10 | 0 | 1.6 | 6.4 | 0.00 | 0.08 | 0.03 | 40 | 1006.3 |
| 20260503224047 | 10 | 319 | 1.6 | 6.4 | 0.00 | 0.08 | 0.03 | 41 | 1006.2 |
| 20260503223549 | 10 | 319 | 1.6 | 4.8 | 0.00 | 0.08 | 0.03 | 41 | 1006.2 |
| 20260503223052 | 10 | 319 | 0.0 | 0.0 | 0.00 | 0.08 | 0.03 | 41 | 1006.3 |
| 20260503222549 | 10 | 0 | 0.0 | 0.0 | 0.00 | 0.08 | 0.03 | 38 | 1006.2 |
| 20260503222045 | 10 | 0 | 0.0 | 0.0 | 0.00 | 0.08 | 0.03 | 36 | 1006.2 |
| 20260503221551 | 10 | 0 | 0.0 | 1.6 | 0.00 | 0.08 | 0.03 | 37 | 1006.3 |
| 20260503221050 | 10 | 0 | 0.0 | 1.6 | 0.00 | 0.08 | 0.03 | 36 | 1006.2 |
| 20260503220547 | 10 | 0 | 0.0 | 1.6 | 0.00 | 0.08 | 0.03 | 36 | 1006.2 |
| 20260503220106 | 10 | 0 | 0.0 | 4.8 | 0.00 | 0.08 | 0.03 | 38 | 1006.2 |
| 20260503215547 | 10 | 319 | 1.6 | 4.8 | 0.00 | 0.10 | 0.03 | 38 | 1006.3 |
| 20260503215047 | 10 | 319 | 1.6 | 4.8 | 0.00 | 0.10 | 0.03 | 40 | 1006.3 |
| 20260503214555 | 10 | 319 | 1.6 | 4.8 | 0.00 | 0.10 | 0.03 | 41 | 1006.1 |
| 20260503214049 | 10 | 319 | 0.0 | 6.4 | 0.00 | 0.10 | 0.03 | 37 | 1006.1 |
| 20260503213546 | 10 | 319 | 1.6 | 6.4 | 0.00 | 0.10 | 0.03 | 39 | 1006.2 |
| 20260503213052 | 10 | 319 | 1.6 | 6.4 | 0.00 | 0.10 | 0.03 | 40 | 1006.2 |
| 20260503212547 | 10 | 319 | 0.0 | 4.8 | 0.00 | 0.10 | 0.03 | 40 | 1006.1 |
| 20260503212047 | 10 | 0 | 0.0 | 6.4 | 0.00 | 0.10 | 0.03 | 39 | 1006.2 |
| 20260503211604 | 10 | 319 | 1.6 | 6.4 | 0.00 | 0.10 | 0.03 | 41 | 1006.2 |
| 20260503211049 | 10 | 319 | 1.6 | 6.4 | 0.00 | 0.10 | 0.03 | 41 | 1006.0 |
| 20260503210547 | 11 | 319 | 1.6 | 4.8 | 0.00 | 0.10 | 0.03 | 38 | 1006.0 |
| 20260503210054 | 11 | 319 | 0.0 | 3.2 | 0.00 | 0.10 | 0.03 | 43 | 1006.1 |
| 20260503205547 | 10 | 319 | 0.0 | 4.8 | 0.00 | 0.13 | 0.03 | 37 | 1006.1 |
| 20260503205048 | 10 | 0 | 0.0 | 4.8 | 0.00 | 0.13 | 0.03 | 38 | 1006.0 |
| 20260503204555 | 11 | 319 | 1.6 | 6.4 | 0.00 | 0.13 | 0.03 | 36 | 1006.1 |
| 20260503204046 | 11 | 0 | 0.0 | 6.4 | 0.00 | 0.13 | 0.03 | 39 | 1006.2 |
| 20260503203543 | 10 | 319 | 3.2 | 6.4 | 0.00 | 0.13 | 0.03 | 38 | 1006.2 |
| 20260503203056 | 11 | 319 | 1.6 | 8.0 | 0.00 | 0.13 | 0.03 | 38 | 1006.1 |
| 20260503202546 | 11 | 0 | 3.2 | 8.0 | 0.00 | 0.13 | 0.03 | 37 | 1006.1 |
| 20260503202047 | 10 | 319 | 0.0 | 8.0 | 0.00 | 0.13 | 0.03 | 40 | 1006.1 |
| 20260503201558 | 10 | 319 | 3.2 | 8.0 | 0.00 | 0.13 | 0.03 | 38 | 1006.3 |
| 20260503201048 | 10 | 319 | 0.0 | 6.4 | 0.00 | 0.13 | 0.03 | 39 | 1006.3 |
| 20260503200549 | 10 | 0 | 1.6 | 6.4 | 0.00 | 0.13 | 0.03 | 37 | 1006.5 |
| 20260503200053 | 11 | 319 | 1.6 | 8.0 | 0.00 | 0.13 | 0.03 | 38 | 1006.3 |
| 20260503195546 | 11 | 319 | 1.6 | 8.0 | 0.00 | 0.13 | 0.03 | 40 | 1006.3 |
| 20260503195043 | 11 | 319 | 3.2 | 8.0 | 0.00 | 0.13 | 0.03 | 39 | 1006.5 |
| 20260503194556 | 11 | 0 | 0.0 | 6.4 | 0.00 | 0.13 | 0.03 | 38 | 1006.5 |
| 20260503194044 | 11 | 319 | 1.6 | 6.4 | 0.00 | 0.13 | 0.03 | 42 | 1006.7 |
| 20260503193543 | 11 | 319 | 1.6 | 6.4 | 0.00 | 0.13 | 0.03 | 40 | 1006.7 |
| 20260503193120 | 10 | 319 | 0.0 | 6.4 | 0.00 | 0.13 | 0.03 | 43 | 1006.9 |
| 20260503192543 | 10 | 0 | 1.6 | 8.0 | 0.00 | 0.13 | 0.03 | 45 | 1006.9 |
| 20260503192043 | 10 | 319 | 3.2 | 8.0 | 0.00 | 0.13 | 0.03 | 41 | 1007.0 |
| 20260503191555 | 10 | 319 | 1.6 | 12.9 | 0.00 | 0.13 | 0.03 | 42 | 1007.1 |
| 20260503191043 | 10 | 319 | 3.2 | 12.9 | 0.00 | 0.13 | 0.03 | 40 | 1007.0 |
| 20260503190544 | 10 | 318 | 4.8 | 12.9 | 0.00 | 0.13 | 0.03 | 40 | 1007.0 |
| 20260503190055 | 10 | 318 | 3.2 | 16.1 | 0.00 | 0.13 | 0.03 | 37 | 1006.9 |
| 20260503185543 | 10 | 318 | 4.8 | 16.1 | 0.00 | 0.13 | 0.03 | 39 | 1007.1 |
| 20260503185047 | 10 | 318 | 6.4 | 16.1 | 0.00 | 0.13 | 0.03 | 41 | 1007.2 |
| 20260503184551 | 10 | 321 | 3.2 | 14.5 | 0.00 | 0.13 | 0.03 | 42 | 1007.1 |
| 20260503184043 | 10 | 321 | 9.7 | 14.5 | 0.00 | 0.13 | 0.03 | 41 | 1007.3 |
| 20260503183542 | 10 | 328 | 3.2 | 9.7 | 0.00 | 0.13 | 0.03 | 41 | 1007.1 |
| 20260503183104 | 10 | 328 | 4.8 | 12.9 | 0.00 | 0.13 | 0.03 | 41 | 1007.3 |
| 20260503182545 | 10 | 329 | 4.8 | 12.9 | 0.00 | 0.13 | 0.03 | 42 | 1007.2 |
| 20260503182043 | 10 | 325 | 3.2 | 8.0 | 0.00 | 0.13 | 0.03 | 45 | 1007.3 |
| 20260503181622 | 10 | 325 | 1.6 | 12.9 | 0.00 | 0.13 | 0.03 | 46 | 1007.3 |
| 20260503181043 | 10 | 325 | 3.2 | 12.9 | 0.00 | 0.13 | 0.03 | 44 | 1007.4 |
| 20260503180543 | 10 | 326 | 3.2 | 12.9 | 0.00 | 0.13 | 0.03 | 43 | 1007.3 |
| 20260503180134 | 10 | 326 | 4.8 | 16.1 | 0.00 | 0.13 | 0.03 | 42 | 1007.3 |
| 20260503175542 | 9 | 326 | 4.8 | 16.1 | 0.00 | 0.13 | 0.03 | 44 | 1007.3 |
| 20260503175044 | 9 | 327 | 8.0 | 16.1 | 0.00 | 0.13 | 0.03 | 43 | 1007.4 |
| 20260503174554 | 10 | 339 | 1.6 | 12.9 | 0.00 | 0.13 | 0.03 | 42 | 1007.4 |
| 20260503174043 | 10 | 343 | 3.2 | 14.5 | 0.00 | 0.13 | 0.03 | 40 | 1007.4 |
| 20260503173542 | 10 | 343 | 4.8 | 14.5 | 0.00 | 0.13 | 0.03 | 46 | 1007.4 |
| 20260503173103 | 10 | 347 | 3.2 | 12.9 | 0.00 | 0.13 | 0.03 | 45 | 1007.3 |
| 20260503172546 | 10 | 349 | 1.6 | 12.9 | 0.00 | 0.13 | 0.03 | 46 | 1007.3 |
| 20260503172045 | 10 | 349 | 3.2 | 12.9 | 0.00 | 0.13 | 0.03 | 44 | 1007.4 |
| 20260503171556 | 10 | 349 | 4.8 | 12.9 | 0.00 | 0.13 | 0.03 | 44 | 1007.4 |
| 20260503171043 | 9 | 349 | 4.8 | 12.9 | 0.00 | 0.13 | 0.03 | 46 | 1007.5 |
| 20260503170544 | 10 | 348 | 3.2 | 14.5 | 0.00 | 0.13 | 0.03 | 47 | 1007.5 |
| 20260503150546 | 9 | 331 | 6.4 | 16.1 | 0.00 | 0.13 | 0.03 | 47 | 1008.2 |